Hearne, TX

9:09 PM CST on November 20, 2019 (GMT -0600)
Hearne

Weather History for KLHB - September, 2019

Change the Weather History Date:

Saturday, September 14, 2019

  Actual Average (WUND) Record (WUND)
Temperature  
Mean Temperature 86 °F -  
Max Temperature 100 °F - - (-1)
Min Temperature 71 °F - - (-1)
Cooling Degree Days 20    
Growing Degree Days 36 (Base 50)    
Moisture  
Dew Point 66 °F    
Average Humidity 58    
Maximum Humidity 90    
Minimum Humidity 24    
Precipitation  
Precipitation 0.00 in - - ()
Sea Level Pressure  
Sea Level Pressure 30.08 in    
Wind  
Wind Speed 2 mph ()    
Max Wind Speed 13 mph    
Max Gust Speed 21 mph    
Visibility 10.0 miles    
Events      
Averages and records for this station are not official NWS values.
T = Trace of Precipitation, MM = Missing Value Source: Averaged Metar Reports

Daily Weather History Graph

Daily Weather History Graph

Search for Another Location

Airport or City:

Astronomy

Sep. 14, 2019 Rise Set
Actual Time 7:10 AM CDT 7:33 PM CDT
Civil Twilight 6:45 AM CDT 7:57 PM CDT
Nautical Twilight 6:17 AM CDT 8:26 PM CDT
Astronomical Twilight 5:48 AM CDT 8:54 PM CDT
Moon 8:14 PM CDT (9/14) 7:27 AM CDT (9/14)
Length of Visible Light 13h 11m
Length of Day
12h 23m
Full, 100% of the Moon is Illuminated
Sep 14
Full
Sep 21
Last Quarter
Sep 28
New
Oct 5
First Quarter
Oct 13
Full

Hourly Weather History & Observations

Time (CDT) Temp. Heat Index Dew Point Humidity Pressure Visibility Wind Dir Wind Speed Gust Speed Precip Events Conditions
12:15 AM 78.4 °F - 70.0 °F 75% 30.11 in 10.0 mi Calm Calm - N/A   Clear
12:35 AM 77.2 °F - 70.2 °F 79% 30.11 in 10.0 mi Calm Calm - N/A   Clear
12:55 AM 75.7 °F - 69.8 °F 82% 30.11 in 10.0 mi Calm Calm - N/A   Clear
1:15 AM 76.5 °F - 70.5 °F 82% 30.11 in 10.0 mi Calm Calm - N/A   Clear
1:35 AM 75.0 °F - 70.7 °F 86% 30.11 in 10.0 mi Calm Calm - N/A   Clear
1:55 AM 74.8 °F - 70.0 °F 85% 30.11 in 10.0 mi Calm Calm - N/A   Clear
2:15 AM 75.0 °F - 70.2 °F 85% 30.11 in 10.0 mi Calm Calm - N/A   Clear
2:35 AM 74.3 °F - 70.2 °F 87% 30.11 in 10.0 mi Calm Calm - N/A   Clear
2:55 AM 74.5 °F - 70.0 °F 86% 30.11 in 10.0 mi Calm Calm - N/A   Clear
3:15 AM 73.4 °F - 69.8 °F 88% 30.10 in 10.0 mi Calm Calm - N/A   Clear
3:35 AM 73.8 °F - 69.8 °F 87% 30.10 in 10.0 mi Calm Calm - N/A   Clear
3:55 AM 73.4 °F - 69.8 °F 88% 30.10 in 10.0 mi Calm Calm - N/A   Clear
4:15 AM 73.4 °F - 69.4 °F 87% 30.10 in 10.0 mi Calm Calm - N/A   Clear
4:35 AM 73.0 °F - 69.4 °F 88% 30.10 in 10.0 mi Calm Calm - N/A   Clear
4:55 AM 72.7 °F - 69.3 °F 89% 30.10 in 10.0 mi Calm Calm - N/A   Clear
5:15 AM 72.5 °F - 69.1 °F 89% 30.10 in 10.0 mi Calm Calm - N/A   Clear
5:35 AM 72.5 °F - 68.7 °F 88% 30.11 in 10.0 mi Calm Calm - N/A   Clear
5:55 AM 71.6 °F - 67.5 °F 87% 30.11 in 10.0 mi Calm Calm - N/A   Scattered Clouds
6:15 AM 71.6 °F - 67.5 °F 87% 30.12 in 10.0 mi Calm Calm - N/A   Scattered Clouds
6:35 AM 71.1 °F - 68.0 °F 90% 30.12 in 10.0 mi Calm Calm - N/A   Clear
6:55 AM 71.2 °F - 67.3 °F 87% 30.13 in 10.0 mi Calm Calm - N/A   Clear
7:15 AM 71.4 °F - 67.3 °F 87% 30.13 in 10.0 mi Calm Calm - N/A   Clear
7:35 AM 71.1 °F - 67.3 °F 88% 30.13 in 10.0 mi Calm Calm - N/A   Clear
7:55 AM 72.0 °F - 68.2 °F 88% 30.14 in 10.0 mi Calm Calm - N/A   Clear
8:15 AM 73.6 °F - 68.5 °F 84% 30.14 in 10.0 mi Calm Calm - N/A   Clear
8:35 AM 75.2 °F - 69.3 °F 82% 30.13 in 10.0 mi Calm Calm - N/A   Clear
8:55 AM 77.7 °F - 70.9 °F 79% 30.14 in 10.0 mi Calm Calm - N/A   Clear
9:15 AM 81.1 °F 85.4 °F 71.8 °F 73% 30.13 in 10.0 mi Calm Calm - N/A   Clear
9:35 AM 86.0 °F 90.7 °F 70.2 °F 59% 30.13 in 10.0 mi North 3.5 mph - N/A   Clear
9:55 AM 88.0 °F 93.4 °F 70.3 °F 56% 30.13 in 10.0 mi North 3.5 mph - N/A   Clear
10:15 AM 89.6 °F 93.9 °F 68.7 °F 50% 30.14 in 10.0 mi NNE 3.5 mph - N/A   Clear
10:35 AM 91.6 °F 95.7 °F 68.4 °F 46% 30.14 in 10.0 mi NE 6.9 mph - N/A   Clear
10:55 AM 92.5 °F 95.9 °F 67.3 °F 43% 30.13 in 10.0 mi ENE 3.5 mph - N/A   Clear
11:15 AM 93.9 °F 98.0 °F 67.5 °F 42% 30.13 in 10.0 mi NE 6.9 mph - N/A   Clear
11:35 AM 95.2 °F 97.8 °F 64.9 °F 37% 30.13 in 10.0 mi NE 4.6 mph - N/A   Clear
11:55 AM 95.9 °F 98.5 °F 64.9 °F 36% 30.12 in 10.0 mi NE 9.2 mph - N/A   Clear
12:15 PM 95.9 °F 98.0 °F 64.6 °F 35% 30.11 in 10.0 mi ENE 9.2 mph - N/A   Clear
12:35 PM 96.6 °F 98.7 °F 64.4 °F 34% 30.11 in 10.0 mi NE 8.1 mph - N/A   Clear
12:55 PM 96.3 °F 98.1 °F 64.0 °F 34% 30.10 in 10.0 mi NE 8.1 mph - N/A   Clear
1:15 PM 97.0 °F 99.9 °F 64.8 °F 35% 30.09 in 10.0 mi ENE 11.5 mph - N/A   Clear
1:35 PM 97.5 °F 100.3 °F 64.9 °F 34% 30.08 in 10.0 mi East 9.2 mph - N/A   Scattered Clouds
1:55 PM 97.3 °F 100.0 °F 64.8 °F 34% 30.07 in 10.0 mi East 5.8 mph - N/A   Scattered Clouds
2:15 PM 97.9 °F 100.3 °F 64.2 °F 33% 30.06 in 10.0 mi East 9.2 mph - N/A   Scattered Clouds
2:35 PM 99.0 °F 101.1 °F 63.7 °F 31% 30.05 in 10.0 mi NNE 8.1 mph 16.1 mph N/A   Scattered Clouds
2:55 PM 99.0 °F 100.0 °F 61.7 °F 29% 30.04 in 10.0 mi NNE 8.1 mph - N/A   Scattered Clouds
3:15 PM 100.0 °F 100.2 °F 59.2 °F 26% 30.03 in 10.0 mi ENE 6.9 mph - N/A   Scattered Clouds
3:35 PM 98.8 °F 97.8 °F 57.6 °F 25% 30.03 in 10.0 mi NE 6.9 mph - N/A   Scattered Clouds
3:55 PM 100.2 °F 99.5 °F 57.7 °F 24% 30.02 in 10.0 mi NE 12.7 mph 20.7 mph N/A   Scattered Clouds
4:15 PM 100.4 °F 99.7 °F 57.2 °F 24% 30.01 in 10.0 mi NE 10.4 mph 16.1 mph N/A   Scattered Clouds
4:35 PM 99.7 °F 98.7 °F 56.3 °F 24% 30.01 in 10.0 mi NNE 8.1 mph - N/A   Clear
4:55 PM 100.2 °F 99.5 °F 56.8 °F 24% 30.00 in 10.0 mi NE 10.4 mph - N/A   Clear
5:15 PM 99.1 °F 98.4 °F 57.7 °F 25% 30.00 in 10.0 mi East 5.8 mph - N/A   Clear
5:35 PM 99.3 °F 98.6 °F 57.6 °F 25% 30.00 in 10.0 mi East 8.1 mph - N/A   Scattered Clouds
5:55 PM 97.5 °F 97.3 °F 59.4 °F 28% 30.01 in 10.0 mi ENE 10.4 mph - N/A   Mostly Cloudy
6:15 PM 95.5 °F 96.0 °F 61.0 °F 32% 30.01 in 10.0 mi ENE 6.9 mph - N/A   Mostly Cloudy
6:35 PM 95.0 °F 95.6 °F 61.7 °F 33% 30.01 in 10.0 mi ENE 4.6 mph - N/A   Mostly Cloudy
6:55 PM 93.7 °F 94.5 °F 62.4 °F 35% 30.02 in 10.0 mi ESE 3.5 mph - N/A   Mostly Cloudy
7:15 PM 91.9 °F 92.9 °F 63.3 °F 38% 30.02 in 10.0 mi Calm Calm - N/A   Scattered Clouds
7:35 PM 90.5 °F 91.8 °F 63.9 °F 41% 30.02 in 10.0 mi Calm Calm - N/A   Scattered Clouds
7:55 PM 89.1 °F 90.6 °F 64.4 °F 44% 30.03 in 10.0 mi Calm Calm - N/A   Scattered Clouds
8:15 PM 87.3 °F 89.5 °F 66.2 °F 49% 30.03 in 10.0 mi Calm Calm - N/A   Clear
8:35 PM 85.8 °F 88.2 °F 66.2 °F 52% 30.04 in 10.0 mi Calm Calm - N/A   Clear
8:55 PM 85.3 °F 87.4 °F 66.0 °F 52% 30.04 in 10.0 mi Calm Calm - N/A   Scattered Clouds
9:15 PM 85.1 °F 87.1 °F 65.7 °F 52% 30.05 in 10.0 mi Calm Calm - N/A   Scattered Clouds
9:35 PM 83.5 °F 86.0 °F 66.7 °F 57% 30.06 in 10.0 mi Calm Calm - N/A   Clear
9:55 PM 82.9 °F 85.4 °F 66.7 °F 58% 30.06 in 10.0 mi Calm Calm - N/A   Scattered Clouds
10:15 PM 83.5 °F 85.7 °F 66.4 °F 56% 30.07 in 10.0 mi Calm Calm - N/A   Scattered Clouds
10:35 PM 80.2 °F 82.7 °F 67.6 °F 65% 30.08 in 10.0 mi Calm Calm - N/A   Clear
10:55 PM 79.2 °F - 68.5 °F 70% 30.08 in 10.0 mi Calm Calm - N/A   Clear
11:15 PM 79.7 °F - 68.2 °F 68% 30.08 in 10.0 mi SE 3.5 mph - N/A   Clear
11:35 PM 80.6 °F 82.8 °F 66.4 °F 62% 30.08 in 10.0 mi SE 3.5 mph - N/A   Clear
11:55 PM 79.7 °F - 67.1 °F 65% 30.08 in 10.0 mi Calm Calm - N/A   Clear